Regional Weather Roundup
Issued by NWS

Home | Current Version | Previous Version | Graphics & Text | Print | Product List | Glossary On
Versions: 1 2 3 4 5 6 7 8 9 10 11 12 13 14 15 16 17 18 19 20 21 22 23 24 25 26 27 28 29 30 31 32 33 34 35 36 37 38 39 40 41 42 43 44 45 46 47 48 49 50
000
ASUS43 KBIS 021410
RWRND

NORTH DAKOTA REGIONAL WEATHER ROUNDUP
NATIONAL WEATHER SERVICE BISMARCK ND
900 AM CDT MON MAY 02 2016

NOTE: "FAIR" INDICATES FEW OR NO CLOUDS BELOW 12,000 FEET WITH NO
SIGNIFICANT WEATHER AND/OR OBSTRUCTIONS TO VISIBILITY.


NDZ001>003-009>011-017-021500-
NORTHWEST NORTH DAKOTA

CITY           SKY/WX    TMP DP  RH WIND       PRES   REMARKS
WILLISTON      SUNNY     58  36  43 NW14G28   30.03S
MINOT          CLOUDY    58  37  45 NW10      29.96F
MINOT AFB      CLOUDY    54  38  55 NW13      29.95F
$$

NDZ018>021-031>035-040>046-021500-
SOUTHWEST NORTH DAKOTA

CITY           SKY/WX    TMP DP  RH WIND       PRES   REMARKS
BISMARCK       RAIN      46  40  79 SW3       30.04S
DICKINSON      CLOUDY    50  35  56 W16       30.03F
GARRISON         N/A     54  40  59 W10       29.97F
HETTINGER ARPT CLOUDY    50  36  58 W15       30.09S
$$

NDZ004>008-012>016-024-026-027-054-021500-
NORTHEAST NORTH DAKOTA

CITY           SKY/WX    TMP DP  RH WIND       PRES   REMARKS
GRAND FORKS    MOSUNNY   59  32  36 CALM      30.02F
GRND FRKS AFB  MOSUNNY   57  33  39 NW5       30.02F
DEVILS LAKE    CLOUDY    51  39  63 SW6       30.02S
$$

NDZ022-023-025-028>030-036>039-047>053-021500-
SOUTHEAST NORTH DAKOTA

CITY           SKY/WX    TMP DP  RH WIND       PRES   REMARKS
FARGO          SUNNY     54  33  45 S7        30.05F
JAMESTOWN      LGT RAIN  51  39  63 SW9       30.04S
$$





USA.gov is the U.S. government's official web portal to all federal, state and local government web resources and services.